Wind_Speed
19 13 16 18 21 29 27 19 19 32 16 18 26 24 19 22 20 21 22 23 23 23 22 22 21 21 22 24 21 23 18 18 14 13 12 12 10 10 9 9 12 8 8 6
18 17 21 15 28 27 24 32 23 25 22 13 13 16 20 20 20 23 23 25 24 24 24 24 22 22 23 23 22 21 21 20 19 14 12 12 6 14 16 16 13 12 8 7
20 21 18 20 11 9 15 12 8 15 14 12 6 19 7 3 20 21 23 24 24 26 27 27 25 25 23 24 22 22 20 20 18 18 13 11 8 18 16 9 12 9 10 7
21 22 16 17 11 8 15 9 9 11 5 8 4 7 4 12 19 17 23 25 26 27 27 28 28 27 24 26 24 23 23 21 17 20 16 15 16 13 11 10 12 7 10 10
18 23 19 14 10 13 16 2 10 11 9 6 11 4 7 12 11 20 21 25 26 29 29 30 30 28 28 28 26 26 23 24 18 23 15 17 16 16 13 10 11 8 8 9
20 25 17 21 14 16 16 14 13 13 12 13 20 15 7 8 26 23 23 25 26 29 29 28 29 30 27 29 28 29 26 24 22 19 19 16 16 15 9 13 11 11 9 7
19 21 21 15 20 16 18 12 11 11 12 13 19 12 10 19 13 22 24 25 27 28 29 31 32 32 30 30 30 31 32 26 24 24 23 21 19 18 10 14 9 10 13 11
16 16 22 14 17 17 20 14 14 15 14 6 15 7 5 24 32 29 33 29 25 28 31 31 30 30 33 31 29 30 34 28 24 26 23 22 19 18 18 6 7 9 9 13
14 20 17 27 18 20 22 16 20 23 23 4 10 7 4 18 20 19 19 30 25 29 30 31 31 29 33 30 30 29 30 25 21 26 24 23 20 16 10 8 10 10 10 9
21 14 12 17 23 21 22 18 16 13 20 13 8 2 7 22 23 12 14 20 24 28 29 31 31 30 31 28 29 28 25 23 21 23 23 22 21 18 16 10 9 4 1 4
17 18 13 12 10 16 13 17 21 18 14 15 8 10 8 24 25 7 12 12 27 28 29 31 32 31 29 29 28 28 25 23 24 24 22 21 19 17 19 14 9 12 6 2
12 12 13 13 13 17 20 20 21 13 16 15 14 10 8 11 13 10 4 12 18 27 30 30 32 32 32 31 29 28 28 25 25 25 25 21 19 18 15 17 12 9 7 3
15 12 12 15 17 15 17 19 17 19 19 19 14 12 8 2 9 20 3 14 17 18 30 30 31 34 33 33 31 32 32 28 26 25 29 23 23 22 21 15 17 11 11 10
5 11 14 14 13 16 19 18 19 22 14 17 18 17 9 12 20 11 3 19 21 20 29 30 31 33 33 36 37 38 36 31 29 27 28 25 23 21 21 20 16 19 15 14
10 16 17 17 15 11 9 19 17 22 21 18 18 16 12 14 12 8 11 8 21 15 28 29 32 34 34 38 42 42 38 33 32 30 30 26 27 22 21 23 19 19 22 16
15 15 18 19 17 13 6 15 14 18 20 18 18 13 9 7 7 8 3 6 16 16 21 28 29 35 36 39 44 44 40 34 34 36 29 29 28 25 24 23 20 18 15 15
19 16 16 16 17 14 9 12 14 17 20 15 15 12 11 7 3 9 5 3 11 25 23 30 30 38 38 40 42 42 39 36 35 36 29 30 29 27 26 25 21 20 15 13
17 21 14 14 16 15 11 13 13 14 12 15 8 10 10 5 2 3 8 9 11 17 23 31 32 30 35 36 38 38 38 39 40 37 37 33 31 26 25 26 22 23 20 15
5 11 5 10 14 12 14 12 8 11 11 7 6 7 12 4 6 21 20 13 11 16 25 26 30 30 36 33 32 34 35 38 41 41 41 38 32 28 27 26 23 21 21 18
16 10 5 7 16 15 8 13 18 13 11 9 5 7 8 11 4 3 12 14 17 16 19 29 30 30 30 36 34 34 33 37 41 43 42 43 35 29 29 24 20 19 20 18
16 11 10 14 17 2 11 5 13 8 5 9 8 6 6 6 7 2 7 14 14 16 12 24 26 29 28 36 35 37 36 35 36 38 39 38 34 29 29 24 21 23 22 20
19 15 15 16 9 10 8 8 7 9 10 9 8 7 7 4 5 10 8 10 11 11 3 17 22 24 22 35 36 35 33 29 31 34 35 35 31 31 28 25 26 24 23 20
18 19 13 16 9 20 19 4 9 15 12 8 6 5 6 4 1 8 6 4 5 6 4 11 16 16 21 30 33 32 27 28 31 32 33 32 30 29 27 30 29 28 27 29
17 21 16 13 16 19 38 28 10 9 9 9 7 6 6 5 1 3 4 2 3 5 8 11 12 13 20 24 27 29 25 26 28 32 31 30 30 31 29 30 29 31 30 28
10 19 15 7 8 20 19 18 14 11 10 8 6 7 7 6 3 2 8 5 6 6 7 11 14 15 20 23 22 21 23 26 28 31 30 32 34 35 31 31 29 26 30 27
8 10 11 9 19 11 18 14 12 13 10 7 6 8 6 7 4 1 6 7 7 7 9 10 13 14 19 21 20 25 24 28 29 30 32 33 37 36 36 35 36 33 31 29
Wind_Direction
224 240 241 244 142 174 197 209 212 236 212 230 181 204 173 184 192 183 189 189 193 194 189 182 189 189 179 183 182 182 187 187 183 205 189 213 199 199 217 208 223 227 236 196
236 222 248 257 131 189 200 203 232 191 187 204 196 229 171 173 195 192 193 191 195 193 189 181 187 188 185 180 182 188 191 198 189 202 204 217 209 212 214 212 212 225 222 205
232 233 231 263 214 190 231 265 137 147 225 217 132 252 205 156 189 208 201 199 195 193 193 189 188 190 191 187 190 196 191 205 214 193 199 208 195 220 228 209 212 222 219 203
233 247 227 236 250 223 252 257 180 200 242 223 185 264 354 13 325 205 210 207 193 194 197 193 189 195 192 187 192 198 196 210 207 188 201 211 209 233 256 251 230 238 229 184
238 243 254 262 247 229 269 287 275 285 243 180 199 186 303 354 301 269 223 212 204 189 197 198 195 192 195 190 192 196 202 202 206 192 186 215 209 222 232 230 302 222 225 195
250 258 225 251 233 259 258 259 229 250 272 267 260 167 183 180 222 275 211 221 206 193 194 200 198 191 195 191 192 193 205 210 201 210 192 209 213 213 218 224 197 202 224 216
235 246 262 227 247 230 249 257 262 252 235 245 250 84 175 176 185 237 255 197 204 202 190 192 197 190 185 192 189 194 201 208 209 211 204 207 212 221 215 207 214 234 239 206
220 219 234 228 238 251 237 229 242 249 245 267 9 105 149 199 200 226 207 182 194 195 190 192 195 192 184 190 193 193 199 205 216 213 214 215 219 226 229 256 264 261 289 262
242 221 209 215 208 221 247 216 243 266 280 89 261 83 116 241 233 207 191 162 178 188 194 187 188 194 184 185 190 194 200 207 222 211 212 212 221 223 243 234 268 253 285 115
258 278 291 195 210 206 229 253 241 234 263 281 288 88 216 218 229 225 166 163 165 183 193 184 185 190 188 182 186 191 203 210 221 204 212 213 219 219 207 229 235 239 86 76
230 256 243 200 194 227 211 237 255 272 267 255 199 254 208 192 224 160 154 172 164 175 185 185 181 183 185 182 186 184 200 214 203 192 210 204 214 216 203 204 217 253 263 114
223 251 254 191 226 224 241 218 234 247 257 273 279 114 135 207 297 161 226 135 159 164 176 188 180 178 181 179 182 188 198 195 197 197 209 204 211 203 206 204 220 227 225 231
210 230 257 267 204 189 215 242 248 234 254 265 274 263 116 140 288 286 215 135 128 159 168 186 179 177 179 178 185 189 193 196 203 200 207 209 210 200 198 206 195 224 218 212
316 258 220 243 236 199 196 211 227 247 230 242 258 270 126 136 271 283 271 150 154 167 167 187 179 175 179 182 189 191 195 196 203 203 197 205 213 204 196 205 206 197 212 221
240 250 270 262 276 268 208 199 210 239 244 247 234 250 245 183 172 86 81 89 134 164 171 186 181 176 181 186 189 189 193 198 202 203 199 207 217 214 206 201 209 210 203 219
216 238 264 278 285 265 226 258 200 221 244 260 272 280 310 29 99 154 180 155 157 172 192 185 189 178 179 190 189 192 196 203 200 210 208 208 219 223 212 210 204 214 219 227
213 226 237 249 247 269 210 245 241 202 219 235 250 263 279 306 18 57 48 279 219 175 194 188 192 183 178 194 197 196 201 204 201 210 205 199 216 222 218 218 205 215 216 225
230 223 232 242 253 238 244 242 213 232 216 215 225 263 266 242 133 248 271 208 213 200 192 192 192 183 179 196 198 198 200 206 207 210 207 208 215 221 222 219 209 222 222 212
166 321 236 266 240 232 230 219 212 197 199 203 267 271 259 230 134 46 25 355 320 209 191 201 192 201 183 193 201 202 203 208 213 214 210 211 218 222 217 213 212 211 209 210
241 146 106 306 289 248 239 235 192 204 213 105 99 22 8 10 48 75 19 350 308 301 215 196 199 201 188 183 203 208 213 213 215 216 215 216 221 218 208 205 209 203 201 205
244 193 142 269 266 119 295 20 129 172 94 71 81 71 12 39 83 157 198 304 295 283 202 189 195 199 191 186 202 210 215 221 219 215 213 213 214 209 205 204 204 196 193 189
235 234 241 241 258 234 34 351 296 115 121 114 98 79 70 65 128 170 225 273 277 281 253 191 194 194 208 188 203 206 207 207 209 210 211 210 209 202 200 204 197 195 186 180
249 233 234 244 249 116 114 193 143 171 137 125 111 76 61 40 68 174 172 242 244 241 222 184 192 196 186 181 197 194 199 204 206 201 204 203 201 193 199 197 194 187 183 185
316 239 235 229 240 135 149 157 163 103 135 144 116 89 50 48 360 180 153 161 164 180 195 184 190 175 172 186 196 198 204 198 202 198 200 199 192 187 200 196 194 187 185 193
296 323 230 232 177 120 131 137 140 140 130 117 114 86 54 33 20 208 145 141 124 129 150 165 175 174 179 184 185 190 198 202 196 193 193 191 189 191 189 188 187 190 188 196
300 322 301 215 152 144 136 136 142 129 115 103 93 84 56 35 31 105 112 135 135 114 140 153 168 174 188 193 196 197 197 192 190 189 191 193 189 188 188 183 186 189 191 191
Height
1468 1470 1468 1452 1458 1483 1487 1506 1513 1509 1480 1485 1484 1486 1477 1486 1491 1494 1499 1504 1508 1512 1516 1521 1527 1532 1535 1539 1542 1547 1550 1552 1554 1557 1559 1561 1561 1562 1561 1561 1561 1563 1564 1565
1465 1468 1452 1444 1473 1476 1472 1486 1483 1462 1460 1466 1468 1466 1457 1474 1484 1488 1494 1498 1504 1510 1513 1518 1525 1529 1533 1537 1541 1545 1549 1550 1552 1555 1557 1558 1557 1555 1556 1555 1556 1557 1560 1564
1463 1452 1447 1445 1445 1456 1456 1454 1467 1482 1459 1458 1468 1477 1482 1473 1481 1486 1489 1493 1499 1505 1510 1515 1521 1526 1531 1535 1539 1543 1547 1547 1550 1553 1555 1556 1555 1552 1549 1557 1559 1558 1560 1560
1454 1445 1444 1448 1448 1449 1461 1441 1452 1458 1463 1478 1466 1500 1483 1493 1495 1482 1484 1488 1492 1500 1506 1511 1516 1521 1527 1531 1535 1540 1544 1545 1548 1549 1552 1554 1554 1552 1553 1558 1561 1562 1566 1564
1455 1447 1446 1449 1447 1447 1454 1448 1451 1449 1455 1468 1476 1495 1517 1504 1498 1487 1481 1481 1486 1492 1499 1505 1510 1515 1521 1526 1531 1536 1540 1543 1545 1547 1549 1551 1554 1553 1559 1560 1556 1562 1567 1566
1447 1441 1441 1443 1442 1445 1443 1446 1447 1449 1453 1474 1443 1471 1520 1524 1512 1498 1474 1476 1479 1484 1493 1500 1505 1510 1517 1522 1527 1531 1535 1540 1543 1545 1548 1549 1549 1551 1561 1562 1558 1562 1567 1565
1448 1446 1438 1439 1447 1444 1446 1456 1479 1482 1477 1474 1428 1469 1482 1490 1479 1468 1469 1468 1471 1478 1485 1493 1499 1504 1510 1517 1522 1526 1529 1535 1539 1542 1545 1546 1546 1547 1557 1559 1565 1563 1560 1559
1457 1464 1444 1438 1446 1452 1449 1454 1474 1492 1473 1457 1439 1497 1494 1471 1455 1455 1451 1456 1464 1471 1478 1487 1494 1500 1504 1512 1518 1522 1525 1530 1535 1538 1542 1544 1545 1545 1547 1555 1555 1554 1553 1561
1445 1445 1422 1430 1436 1445 1450 1456 1443 1454 1440 1473 1478 1478 1472 1470 1453 1440 1442 1446 1457 1464 1472 1480 1489 1495 1501 1507 1514 1518 1521 1527 1531 1534 1538 1542 1543 1545 1547 1551 1552 1552 1559 1562
1431 1446 1421 1420 1429 1435 1443 1437 1457 1450 1481 1489 1482 1481 1486 1472 1451 1441 1438 1440 1449 1460 1469 1475 1482 1490 1497 1504 1511 1514 1519 1524 1528 1532 1536 1539 1542 1545 1548 1551 1551 1555 1559 1561
1426 1430 1432 1420 1433 1440 1443 1449 1442 1438 1442 1467 1486 1483 1436 1446 1447 1432 1433 1438 1443 1452 1463 1470 1477 1486 1493 1500 1507 1512 1516 1522 1525 1528 1532 1537 1540 1544 1548 1550 1554 1554 1558 1563
1421 1427 1437 1432 1422 1423 1428 1436 1439 1452 1462 1442 1443 1463 1433 1438 1431 1430 1433 1436 1440 1446 1457 1466 1473 1481 1489 1496 1502 1508 1513 1519 1523 1526 1529 1534 1537 1542 1546 1548 1551 1550 1552 1553
1420 1433 1446 1436 1420 1418 1431 1430 1428 1431 1434 1446 1456 1443 1418 1430 1433 1431 1430 1433 1440 1446 1452 1462 1469 1477 1485 1491 1497 1503 1509 1516 1520 1523 1528 1531 1533 1537 1543 1546 1549 1551 1551 1553
1419 1420 1430 1441 1422 1412 1426 1426 1427 1429 1441 1444 1439 1431 1427 1442 1436 1428 1428 1431 1435 1443 1450 1459 1466 1473 1481 1486 1491 1498 1505 1512 1517 1521 1526 1530 1532 1535 1538 1543 1546 1548 1549 1552
1421 1430 1419 1411 1407 1407 1410 1417 1423 1429 1426 1436 1429 1427 1418 1420 1422 1429 1431 1434 1437 1443 1448 1456 1462 1469 1477 1482 1487 1494 1501 1507 1513 1518 1523 1526 1529 1533 1536 1539 1543 1547 1549 1550
1416 1431 1422 1423 1409 1405 1417 1413 1412 1420 1421 1420 1420 1424 1413 1416 1422 1426 1430 1435 1437 1443 1446 1453 1459 1464 1472 1476 1482 1489 1496 1503 1508 1513 1519 1524 1527 1530 1534 1538 1542 1545 1547 1550
1414 1419 1425 1434 1412 1409 1425 1414 1408 1412 1414 1418 1430 1419 1415 1417 1420 1424 1428 1432 1434 1436 1444 1449 1455 1460 1467 1471 1477 1485 1491 1498 1504 1510 1515 1519 1522 1525 1530 1535 1541 1542 1545 1546
1406 1411 1412 1425 1416 1445 1405 1393 1398 1405 1404 1406 1411 1414 1415 1417 1421 1423 1425 1428 1432 1434 1440 1446 1451 1459 1465 1468 1475 1482 1489 1493 1498 1504 1509 1512 1516 1520 1525 1530 1536 1538 1541 1543
1406 1422 1419 1427 1422 1409 1398 1395 1396 1403 1411 1405 1410 1412 1413 1415 1417 1426 1429 1431 1432 1434 1437 1444 1449 1457 1461 1465 1470 1477 1483 1488 1491 1496 1502 1506 1510 1514 1519 1524 1530 1533 1539 1541
1399 1406 1437 1435 1442 1433 1400 1387 1389 1395 1423 1405 1412 1417 1420 1421 1426 1433 1434 1437 1436 1434 1435 1440 1446 1453 1457 1462 1464 1469 1475 1479 1481 1487 1494 1500 1506 1511 1515 1519 1524 1527 1533 1536
1407 1414 1445 1465 1434 1410 1397 1397 1393 1424 1431 1415 1418 1422 1426 1427 1432 1430 1424 1436 1439 1436 1433 1437 1443 1448 1453 1456 1459 1464 1468 1472 1479 1485 1492 1498 1502 1507 1512 1516 1519 1523 1527 1531
1409 1414 1412 1411 1413 1431 1406 1405 1413 1418 1418 1422 1424 1427 1428 1430 1432 1433 1436 1438 1439 1435 1434 1437 1442 1445 1451 1452 1454 1459 1467 1474 1479 1484 1490 1494 1500 1505 1510 1514 1517 1521 1526 1529
1405 1394 1400 1399 1401 1401 1405 1411 1409 1415 1421 1421 1425 1426 1427 1429 1429 1432 1435 1438 1437 1436 1437 1438 1441 1446 1449 1452 1454 1459 1467 1472 1475 1481 1486 1491 1498 1503 1506 1510 1514 1517 1522 1525
1393 1383 1388 1393 1390 1396 1408 1421 1420 1419 1422 1423 1424 1425 1427 1428 1430 1431 1434 1437 1437 1438 1440 1441 1443 1447 1448 1450 1453 1460 1465 1470 1475 1479 1483 1488 1494 1500 1505 1509 1513 1516 1519 1523
1407 1404 1381 1390 1385 1394 1401 1408 1416 1420 1420 1423 1424 1424 1427 1429 1430 1431 1434 1437 1438 1439 1440 1442 1445 1447 1447 1450 1455 1460 1464 1468 1473 1477 1480 1485 1490 1494 1500 1504 1511 1516 1517 1520
1414 1411 1407 1392 1390 1396 1404 1413 1415 1416 1419 1423 1423 1423 1428 1430 1431 1432 1433 1437 1439 1441 1442 1444 1446 1447 1449 1452 1456 1459 1463 1468 1472 1476 1479 1483 1486 1490 1492 1498 1504 1507 1514 1519